Location: Black Skies Observatory
(44.7549°N, 79.7179°W)
Time: 14:15:51
(UTC-05:00)

Envisat - Pass Details

Date: 01 November 2020
Orbit: 764 x 766 km, 98.1° (Epoch: 01 December)

Event Time Altitude Azimuth Distance (km) Brightness Sun altitude
Rises 05:34:08 0° 22° (NNE) 3,242 6.5 -15.2°
Reaches altitude 10° 05:36:42 10° 33° (NNE) 2,310 5.8 -14.8°
Maximum altitude 05:41:13 32° 95° (E) 1,304 5.0 -14.0°
Drops below altitude 10° 05:45:43 10° 158° (SSE) 2,294 5.9 -13.2°
Sets 05:48:14 0° 168° (SSE) 3,215 6.5 -12.8°
